Location: Spor
(46.2167°N, 11.0500°E)
Time: 05:31:12
(UTC+00:00)

X-37B - Visible Passes

Search period start: 02 August 2021 00:00
Search period end: 12 August 2021 00:00
Orbit: 383 x 392 km, 45.0° (Epoch: 01 July)

Date Brightness Start Highest point End Pass type
(mag) Time Alt. Az. Time Alt. Az. Time Alt. Az.
02 Aug 2.4 02:35:26 16° S 02:36:46 20° SSE 02:39:12 10° ESE visible
03 Aug 3.2 01:39:35 11° SE 01:39:35 11° SE 01:40:07 10° ESE visible
03 Aug 1.2 03:11:51 11° SW 03:14:44 43° SSE 03:17:48 10° E visible
04 Aug 1.6 02:15:59 28° S 02:16:29 30° SSE 02:19:21 10° E visible
05 Aug 3.2 01:20:05 13° ESE 01:20:05 13° ESE 01:20:44 10° ESE visible
05 Aug 0.8 02:52:22 18° WSW 02:54:34 58° SSE 02:57:43 10° E visible
06 Aug 1.2 01:56:29 43° SSE 01:56:29 43° SSE 01:59:19 10° E visible
07 Aug 3.5 01:00:38 11° E 01:00:38 11° E 01:00:52 10° E visible
07 Aug 0.5 02:32:54 28° WSW 02:34:25 69° S 02:37:36 10° E visible
08 Aug 1.7 01:37:06 36° ESE 01:37:06 36° ESE 01:39:14 10° E visible
08 Aug 0.6 03:09:27 10° W 03:12:38 68° S 03:15:49 10° ESE visible
09 Aug 0.5 02:13:38 51° WSW 02:14:17 73° S 02:17:28 10° E visible
10 Aug 2.9 01:18:01 20° E 01:18:01 20° E 01:19:06 10° E visible
10 Aug 0.7 02:50:18 18° W 02:52:28 55° SSW 02:55:37 10° ESE visible
11 Aug 1.1 01:54:50 48° SE 01:54:50 48° SE 01:57:19 10° ESE visible
11 Aug 1.6 03:27:45 10° W 03:30:32 28° SSW 03:33:19 10° SE visible
